Погода в Буткане

Россия / Республика Коми     63°21′44″N   49°05′52″E
темп.,
°C
ветер,
м/с
пор.,
м/с
влажн.,
%
обл.,
%
осадки,
мм/ч
давл.,
гПа
погр.,
м
9 декабря, чт
чт900:00−12юв2696100 0.3 1022166
03:00−13юв2697100 0.4 1022132
06:00−15ююв1198100 0.1 102228
09:00−17ю119972 0.3 102211
12:00−18зюз1110082 0.1 102316
15:00−20зюз1110083 0.1 102314
18:00−22з2210092 0.0 102349
21:00−21з24100100 0.1 102475
10 декабря, пт
пт1000:00−20з2510068 0.0 102483
03:00−18з289881 0.1 1025179
06:00−19з389889 0.0 1027166
09:00−19з279999 0.1 1029142
12:00−17з399896 0.0 1031182
15:00−18з399970 0.0 1033134
18:00−16з399887 0.0 1034144
21:00−15з311956 0.0 1035208
11 декабря, сб
сб1100:00−16зюз39955 0.0 1036183
03:00−16з310956 0.0 1037179
06:00−16зюз31095100 0.0 1038192
09:00−16зюз3996100 0.0 1038166
12:00−15юз299480 0.0 1038194
15:00−12зюз4138755 0.0 1038284
18:00−12зюз4148432 0.0 1037309
21:00−12зюз41483100 0.0 1037330
12 декабря, вс
вс1200:00−11юз4148493 0.0 1036358
03:00−10зюз41581100 0.0 1036388
06:00−11зюз4138339 0.0 1035352
09:00−11зюз4128482 0.0 1035320
12:00−10зюз41284100 0.0 1035343
15:00−8юз41184100 0.0 1034365
18:00−10юз41183100 0.0 1034310
21:00−13юз3108741 0.0 1034215
13 декабря, пн
пн1300:00−14ююз288968 0.0 1033141
03:00−11ююз31187100 0.0 1031280
06:00−8юз31290100 0.0 1030326
09:00−7юз4129274 0.0 1028368
12:00−6юз41394100 0.0 1027448
15:00−5юз41294100 0.1 1027498
18:00−4зюз41294100 0.1 1026575
21:00−4юз41194100 0.1 1026463